User: anonymous   Login
Location: Unspecified
(0.0000°N, 0.0000°E)
Time: 01:53:23
(UTC+00:00)
Language:

Cosmos 2226 - Orbit

View from above orbital plane
View from above orbital plane
View from above satellite
View from above satellite

Ground track
Ground track

The orbit data is extracted from the following two-line orbital elements,

1 22282U 92092A   18016.85870123 -.00000010 +00000-0 +50531-4 0  9998
2 22282 073.6228 263.0215 0028670 113.7830 317.3171 12.41246617135849
Epoch (UTC): 16 January 2018 20:36:31
Eccentricity: 0.0028670
inclination: 73.6228°
perigee height: 1479 km
apogee height: 1524 km
right ascension of ascending node: 263.0215°
argument of perigee: 113.7830°
revolutions per day: 12.41246617
mean anomaly at epoch: 317.3171°
orbit number at epoch: 13584

The dashed part of the orbit path shows where the satellite is in the earth's shadow,  

DLR